SCP
0 0 0 0 -0 0 0 0 -0 0 0 0 0 0 0 0 0 0 0 0 0 0 1 0 1 1 1 1 1 1 1 1 0 0 0 0 0 0 0 0 0 0 0 0 0 0 0 0 0
0 0 0 -0 0 0 0 0 0 0 0 0 0 0 0 0 0 0 0 0 0 0 0 1 1 1 1 1 1 1 1 1 1 1 0 0 0 0 0 0 0 0 0 0 0 0 0 0 0
-0 -0 -0 0 0 0 0 -0 0 0 0 0 0 0 0 0 0 0 0 0 0 0 0 1 2 2 1 1 1 1 1 1 1 1 0 0 0 0 0 0 0 0 0 0 0 0 0 0 0
0 0 0 -0 0 0 0 0 0 0 -0 0 0 0 0 0 0 0 0 0 0 0 0 1 3 2 2 1 1 2 1 1 1 0 0 0 0 0 0 0 0 0 0 0 0 0 0 0 0
-0 -0 -0 -0 -0 0 -0 0 0 0 0 0 0 0 0 0 0 0 0 0 0 0 0 0 1 0 0 1 1 1 0 0 0 0 0 0 0 0 0 0 0 0 0 0 0 0 0 0 0
0 0 -0 -0 0 0 0 0 0 -0 -0 0 0 0 0 0 0 0 0 0 0 0 0 0 0 0 0 0 0 0 0 0 0 0 0 0 0 0 0 0 0 0 0 0 0 0 0 0 0
-0 -0 -0 -0 0 0 0 0 0 0 0 0 0 0 0 0 0 0 0 0 0 0 0 0 0 0 0 0 0 0 0 0 0 0 0 0 0 0 0 0 0 0 0 0 0 0 0 0 0
0 0 0 -0 -0 0 0 0 0 0 0 0 0 0 0 0 0 0 0 0 0 0 0 0 0 0 0 0 0 0 0 0 0 0 0 0 0 0 0 0 0 0 0 0 0 0 0 0 0
0 0 0 -0 0 0 0 0 0 0 0 0 0 0 0 0 0 0 0 0 0 0 0 0 0 0 0 0 0 0 0 0 0 0 0 0 0 0 0 0 0 0 0 0 0 0 0 0 0
0 0 0 -0 -0 0 0 0 0 0 0 0 0 0 0 0 0 0 0 0 0 0 0 0 0 0 0 0 0 0 0 0 0 0 0 0 0 0 0 0 0 0 0 0 0 0 0 0 0
0 0 0 -0 0 0 0 0 0 0 0 0 0 0 0 0 0 0 0 0 0 0 0 0 0 0 0 0 0 0 0 0 0 0 0 0 0 0 0 0 0 0 0 0 0 0 0 0 0
0 0 0 0 -0 0 0 -0 -0 0 0 0 0 0 0 0 0 0 0 0 0 0 0 0 0 0 1 0 0 0 0 0 0 0 0 0 0 0 0 0 0 0 0 0 0 0 0 0 0
0 -0 -0 -0 0 0 0 0 0 0 0 0 0 0 0 0 0 0 0 0 0 0 0 0 0 1 1 1 0 0 0 0 0 0 0 0 0 0 0 0 0 0 0 0 0 0 0 0 0
-0 -0 -0 0 0 -0 0 0 0 0 0 0 0 0 0 0 0 0 0 0 0 0 0 0 0 0 0 0 1 0 0 0 0 0 0 0 0 0 0 0 0 0 0 0 0 0 0 0 0
-0 -0 -0 0 0 0 0 0 0 0 0 0 0 0 0 0 0 0 0 0 0 0 0 0 0 0 0 1 1 0 0 0 0 0 0 0 0 0 0 0 0 0 -0 0 0 0 0 0 1
-0 -0 0 0 -0 -0 0 0 0 0 0 0 0 0 0 0 0 0 0 0 0 0 0 0 0 0 1 0 0 0 0 0 0 0 0 0 -0 0 0 0 0 0 0 0 0 0 0 0 0
-0 0 -0 -0 -0 -0 0 0 0 0 -0 0 0 0 0 0 0 0 0 0 0 0 0 0 0 0 0 0 0 0 0 0 0 0 0 0 -0 -0 -0 0 0 0 -0 -0 0 0 0 0 0
0 0 -0 -0 0 0 0 0 0 0 0 0 0 0 0 0 0 0 0 0 0 0 0 0 0 0 0 0 0 0 0 0 0 0 0 0 -0 -0 -0 -0 0 0 -0 -0 0 0 0 0 0
0 0 0 -0 0 0 0 -0 0 0 0 -0 -0 0 0 0 0 0 0 0 0 0 0 0 0 0 0 0 0 0 0 0 0 0 0 0 -0 -0 -0 -0 -0 0 -0 0 0 0 0 0 0
0 0 0 0 0 0 0 0 0 0 0 -0 0 0 0 0 0 0 0 0 0 0 0 0 0 0 0 0 0 0 0 0 0 0 0 0 0 -0 -0 -0 -0 0 -0 0 0 0 0 0 0
0 -0 -0 0 0 -0 0 0 0 -0 0 0 0 0 0 0 0 0 0 0 0 0 0 0 0 0 0 0 0 0 0 0 0 0 0 0 0 0 0 0 0 -0 0 0 0 0 0 0 0
0 -0 -0 0 0 -0 0 -0 -0 -0 0 0 0 0 0 0 0 0 0 0 0 0 0 0 0 0 0 0 0 0 0 0 0 0 0 0 0 -0 0 0 0 -0 0 0 0 0 0 0 0
-0 -0 0 0 0 -0 -0 -0 0 -0 -0 0 0 0 0 0 0 0 0 0 0 0 0 0 0 0 0 0 0 0 0 0 0 0 0 0 0 -0 -0 0 -0 0 0 0 0 0 0 0 0
0 -0 0 0 0 -0 0 0 -0 -0 0 0 0 0 0 0 0 0 0 0 0 0 0 0 0 0 0 0 0 0 0 0 0 0 0 0 0 0 -0 0 0 0 0 0 0 0 0 0 0
0 -0 0 0 -0 -0 -0 -0 -0 0 0 0 0 0 0 0 0 0 0 0 0 0 0 0 0 0 0 0 0 0 0 0 0 0 0 0 0 0 -0 -0 0 0 0 0 0 0 0 0 0
0 0 0 0 0 -0 0 0 0 0 0 0 0 0 0 0 0 0 0 0 0 0 0 0 0 0 0 0 0 0 0 0 0 0 0 0 0 -0 -0 -0 -0 0 0 0 0 0 0 0 0
0 0 0 0 0 0 0 0 -0 0 0 0 0 0 0 0 0 0 0 0 0 0 0 0 0 0 0 0 0 0 0 0 0 0 0 -0 0 0 0 0 -0 0 0 0 0 0 0 0 0
0 0 0 0 -0 0 0 -0 0 0 0 0 0 0 0 0 0 0 -0 -0 0 -0 0 0 0 0 0 0 0 0 0 0 0 0 0 0 0 -0 0 0 -0 0 0 0 0 0 0 0 0
0 0 0 0 0 0 -0 0 0 0 0 0 0 0 0 -0 -0 -0 -0 -0 -0 -0 0 0 0 0 0 0 0 0 0 0 0 0 0 0 -0 -0 0 -0 0 -0 0 0 0 0 0 0 0
0 0 0 0 0 -0 -0 0 0 0 0 0 0 0 0 -0 -0 -0 -0 -0 -0 -0 0 0 0 0 0 0 0 0 0 0 0 0 0 0 -0 0 -0 0 0 0 0 0 0 0 0 0 0
Wind_Speed_500mb
17 15 7 20 13 16 31 20 25 17 27 29 17 14 19 20 23 8 18 9 6 3 7 18 17 15 21 26 25 25 28 30 33 30 36 36 37 33 31 30 32 32 30 28 25 23 25 21 31
13 8 16 23 21 29 4 21 15 21 22 20 5 10 6 25 25 14 25 9 3 2 7 10 17 21 29 30 29 28 32 35 37 36 40 40 40 39 36 34 31 31 32 30 27 29 25 25 27
23 18 27 17 28 30 14 12 18 22 4 5 11 8 4 13 15 8 10 3 6 8 21 21 20 31 38 36 32 31 35 38 40 43 45 43 40 42 43 43 42 39 38 33 29 30 33 29 29
9 20 26 20 33 22 19 15 15 19 22 14 10 10 17 15 18 14 3 5 9 9 11 18 19 31 39 36 36 39 43 44 47 48 48 47 46 47 48 49 48 46 42 38 30 33 30 34 34
19 24 24 36 42 19 28 33 16 17 17 18 19 4 19 22 21 17 12 8 10 10 14 20 30 36 36 36 36 42 46 48 49 52 53 54 52 52 53 50 50 49 46 43 37 37 38 40 34
29 34 25 30 39 17 15 16 15 20 24 8 8 5 17 27 19 14 10 9 10 12 18 15 23 29 35 32 33 35 41 49 53 53 53 54 55 57 60 62 61 54 49 46 42 39 41 40 32
33 24 35 41 41 44 23 19 11 21 20 16 20 8 11 25 18 13 13 17 10 9 13 15 18 31 31 31 35 36 40 44 47 48 52 56 57 57 59 60 55 47 42 49 44 36 43 39 38
41 24 43 38 38 39 6 14 22 28 12 12 3 6 11 19 18 11 12 14 12 18 6 16 22 16 23 27 31 39 44 44 39 42 45 45 47 42 34 35 38 39 43 47 43 37 39 44 38
41 27 32 42 45 29 36 24 22 27 8 33 13 13 10 16 18 13 16 16 15 14 16 11 17 28 36 24 24 35 38 37 39 33 44 42 33 27 21 24 31 32 35 41 41 36 38 41 39
40 29 47 43 42 32 40 31 38 38 27 30 28 21 24 24 20 21 22 22 26 11 12 19 27 33 40 20 22 27 31 34 42 47 36 35 30 29 26 28 33 29 36 38 43 39 36 38 40
51 40 44 51 51 46 45 39 41 29 22 20 13 4 32 24 25 27 24 22 13 8 8 19 31 29 36 23 23 24 24 35 50 31 30 33 27 21 16 23 32 29 29 42 44 42 36 35 34
49 64 60 60 49 49 38 51 40 25 28 27 2 5 23 31 31 29 27 19 11 14 11 12 18 27 24 29 24 21 24 38 33 26 32 33 26 21 26 29 30 36 29 38 45 42 35 26 30
52 52 63 50 39 58 59 46 38 32 26 17 11 20 23 21 26 30 25 18 18 7 13 13 24 20 23 26 23 28 35 33 24 21 29 28 38 30 26 27 27 37 36 36 38 35 33 23 35
57 61 57 44 62 60 48 38 34 50 22 9 21 22 29 26 25 26 25 23 16 16 9 16 15 18 19 28 32 34 35 29 28 21 25 37 31 25 22 25 24 37 40 38 39 41 35 38 38
60 50 45 49 51 45 50 38 33 45 28 37 29 30 30 30 29 34 34 27 22 16 12 13 16 17 19 26 31 37 35 33 30 27 31 30 24 25 23 21 19 27 47 45 45 43 39 38 39
45 52 43 46 45 58 51 37 28 40 29 44 34 35 39 35 35 28 26 28 24 17 14 15 9 15 17 23 27 30 33 32 31 30 30 31 28 26 21 18 16 14 39 50 43 47 37 31 42
41 36 50 47 44 47 31 33 33 38 39 35 36 35 35 34 31 28 28 28 23 18 14 11 12 9 20 18 26 28 31 31 27 31 28 27 26 23 19 14 11 10 32 44 45 46 43 34 47
40 45 44 45 45 36 30 31 32 42 49 29 52 44 39 34 41 37 35 27 24 19 16 10 8 12 19 14 22 23 25 21 27 22 20 21 24 19 20 16 16 16 34 43 41 36 39 41 48
49 49 48 44 29 20 30 40 30 29 33 46 45 36 32 34 40 42 39 31 26 19 15 10 11 12 17 20 23 19 14 13 21 29 18 16 22 23 18 18 21 23 32 38 42 44 44 44 41
55 52 47 42 37 27 30 31 26 29 37 53 48 33 31 37 45 43 39 36 29 20 13 14 6 11 12 16 14 11 12 15 21 22 28 12 5 15 20 19 23 28 30 32 41 44 47 48 44
50 50 40 46 34 32 32 29 27 43 44 43 35 15 7 40 44 45 40 37 30 23 19 11 9 7 9 11 17 23 22 20 17 18 19 16 3 9 19 25 19 22 26 33 36 46 46 45 53
49 50 51 39 30 24 29 28 26 31 32 21 16 26 30 43 45 49 44 40 33 24 19 14 10 2 9 9 11 25 24 24 17 10 22 17 5 8 16 30 24 23 22 29 38 42 34 32 33
47 48 43 33 30 32 30 24 29 29 35 15 2 15 42 50 50 53 47 41 33 26 22 15 10 4 4 18 18 17 27 27 14 6 15 13 7 5 17 29 29 31 26 25 36 36 36 30 34
49 45 33 24 24 26 31 30 28 31 5 9 3 13 36 42 45 47 42 39 33 27 21 16 13 8 2 6 15 21 32 26 16 11 12 11 11 4 14 31 32 35 25 31 31 31 40 46 39
44 34 21 23 24 24 34 34 32 25 14 2 5 12 35 39 44 46 45 41 36 29 24 17 14 8 4 2 8 14 23 28 26 23 21 18 23 14 18 18 30 33 28 27 33 30 32 34 43
46 33 26 30 23 33 30 26 7 4 13 8 3 12 28 35 44 45 45 40 36 30 24 18 15 11 5 1 4 12 12 21 27 32 28 30 26 18 20 19 21 25 30 34 32 35 35 39 39
42 43 37 35 32 26 15 26 20 23 17 17 19 21 31 31 43 45 44 40 35 31 26 20 15 12 8 2 2 8 11 19 21 24 28 29 26 28 25 24 24 33 33 38 44 45 50 50 42
44 38 33 25 33 30 26 28 13 25 17 22 23 20 29 35 42 45 44 40 33 31 28 22 17 13 10 4 3 5 9 13 17 20 24 28 30 27 27 28 31 35 39 43 49 47 57 43 41
37 39 35 28 29 25 22 21 30 21 19 22 21 32 35 44 45 46 43 38 33 32 28 26 19 14 12 8 6 8 6 11 12 17 21 29 25 28 31 30 30 36 41 47 50 54 52 41 36
46 46 35 20 35 23 21 7 19 17 18 13 38 38 40 47 46 43 42 39 36 33 32 27 23 17 14 10 9 11 8 10 11 16 21 28 27 20 34 37 34 37 35 41 43 44 42 38 22
Wind_Direction_500mb
173 153 110 245 257 232 261 360 230 330 59 50 19 359 347 332 42 51 139 143 80 109 252 275 294 308 318 317 300 293 286 288 287 292 292 289 284 285 287 291 291 292 287 276 256 246 261 262 248
168 211 256 271 248 279 329 277 319 12 41 30 338 267 350 75 64 86 133 125 128 259 237 264 279 287 303 311 303 290 283 286 285 286 286 289 290 293 291 290 281 285 285 276 258 240 248 250 248
181 228 274 242 253 265 317 295 343 350 78 138 280 181 60 93 84 68 115 14 228 247 266 258 268 290 299 302 296 280 278 282 281 280 281 285 281 279 278 281 281 280 278 280 259 246 238 248 247
197 222 249 255 261 298 330 348 334 360 311 165 212 43 114 128 129 137 187 210 245 280 266 273 285 288 291 292 280 271 270 272 276 279 282 281 278 276 276 275 275 274 272 269 254 239 239 243 243
249 265 260 263 269 343 265 312 350 315 306 326 119 241 108 129 127 142 150 196 232 254 277 284 284 286 286 291 281 275 275 276 280 282 281 280 279 277 274 272 271 271 267 261 261 231 233 237 239
230 236 263 273 293 190 270 338 342 310 304 313 221 117 108 154 135 145 166 215 221 237 259 268 276 293 301 308 304 294 283 280 280 279 280 281 281 279 276 273 272 267 261 255 250 234 230 236 237
250 269 270 283 300 298 319 209 289 297 325 0 22 18 140 159 157 166 187 196 205 225 262 286 281 301 316 311 308 300 298 299 291 284 283 284 282 280 277 272 269 266 251 248 240 238 228 233 233
242 263 275 276 273 288 359 315 268 318 271 338 349 335 47 135 180 181 190 217 242 254 229 277 298 288 282 302 297 299 304 311 306 294 289 287 288 289 285 281 268 259 243 242 235 228 228 233 234
244 257 262 272 284 309 309 322 324 298 233 279 247 196 145 162 183 201 225 234 251 240 278 298 277 269 282 289 294 296 303 304 304 313 300 293 295 291 267 278 274 260 246 236 227 224 223 228 229
243 248 259 274 287 310 316 311 307 303 244 237 209 183 199 177 192 226 227 232 245 232 258 291 278 275 294 306 292 280 291 279 286 297 294 300 291 280 263 242 254 252 246 229 212 211 220 226 223
240 252 258 273 290 300 299 297 285 293 299 293 23 309 172 187 212 226 243 259 226 292 292 272 288 296 303 299 284 302 289 276 289 305 314 310 306 317 289 258 253 254 244 220 208 211 217 226 215
256 253 256 257 278 297 277 280 280 288 288 275 346 291 185 205 217 223 235 254 263 231 279 281 287 287 303 293 287 270 273 276 287 289 302 306 301 283 278 265 254 239 233 222 208 215 219 220 180
252 261 262 270 275 265 269 265 279 278 282 294 296 242 233 244 217 225 221 236 229 257 252 291 281 304 295 306 296 283 288 292 282 288 287 289 295 282 280 277 255 225 217 228 210 202 192 209 189
256 260 267 270 258 264 268 264 256 269 254 236 264 253 249 234 223 213 215 217 228 246 272 275 295 289 301 309 327 315 308 288 288 271 270 270 293 279 280 284 269 227 201 219 210 194 194 204 201
263 266 270 255 255 260 269 262 248 269 239 263 253 241 244 261 238 226 209 212 221 239 256 274 325 306 309 316 314 313 312 300 284 273 261 263 273 287 288 293 279 232 209 208 206 195 185 201 211
257 261 259 259 253 252 239 251 265 261 225 256 244 252 251 236 235 210 203 212 216 221 240 268 279 286 298 302 310 309 314 306 290 279 269 259 262 268 277 288 283 246 205 202 199 186 184 204 187
249 250 254 258 250 255 225 238 242 268 281 247 241 258 260 233 198 197 201 209 210 221 230 250 272 312 297 329 333 313 322 327 308 290 283 270 264 256 262 276 268 210 185 186 187 183 181 182 175
237 240 237 251 261 253 229 244 239 242 251 260 262 249 252 230 187 192 196 207 211 215 233 252 291 289 304 359 328 324 328 339 349 322 300 273 265 247 248 248 225 194 175 176 168 183 185 180 168
243 248 249 252 239 267 233 240 240 265 283 287 290 285 258 203 182 183 192 199 208 213 229 243 262 300 313 341 322 315 333 8 354 3 335 277 259 228 227 227 208 188 179 181 186 189 180 176 172
241 250 260 272 283 291 288 271 280 290 270 266 265 272 276 166 159 173 187 195 206 218 217 229 262 282 325 308 330 336 321 314 343 347 5 4 312 207 218 198 181 184 183 180 180 180 175 172 180
232 244 254 262 276 276 282 270 265 263 265 263 255 232 241 158 163 175 182 195 203 206 213 204 235 267 353 343 352 327 326 317 317 349 349 13 210 201 192 165 157 170 181 188 172 178 177 181 172
232 232 239 250 270 270 283 292 287 297 277 259 258 212 184 164 173 177 183 192 198 204 203 196 211 213 337 335 350 349 355 345 315 321 3 23 93 193 180 166 171 172 154 177 174 173 175 183 168
234 236 241 237 245 257 263 270 277 283 284 239 131 238 179 159 174 175 181 188 192 196 193 184 206 193 327 356 5 5 356 346 350 325 14 42 71 159 189 174 176 169 181 174 180 165 159 177 177
233 236 244 253 261 254 249 254 268 268 26 83 336 110 138 158 168 171 178 182 186 189 188 187 198 195 191 347 4 356 3 18 37 51 43 31 50 102 161 179 171 178 180 183 190 175 163 165 169
217 226 224 225 236 253 253 249 250 265 306 115 10 100 144 156 162 166 173 175 182 183 186 184 202 195 181 331 9 23 14 49 62 51 43 54 52 93 135 155 182 185 184 180 182 175 168 159 160
209 204 228 224 226 246 269 240 258 225 150 122 154 78 129 155 160 169 175 178 180 181 186 187 191 200 163 82 36 37 12 49 66 52 50 50 61 84 125 121 147 167 176 173 165 155 152 154 158
199 212 215 250 262 274 232 230 266 159 174 201 177 140 137 156 161 169 173 179 179 182 186 185 194 193 188 182 89 61 16 40 43 44 46 51 69 93 98 112 129 147 147 154 153 148 143 144 146
221 196 208 227 242 264 280 277 264 145 196 151 126 143 147 157 163 170 174 178 180 183 184 185 191 193 193 164 105 88 72 48 39 47 59 59 83 83 105 96 127 137 144 145 145 146 154 143 126
202 228 199 224 224 230 248 268 124 151 163 133 153 145 158 161 169 171 174 176 181 182 184 186 187 187 191 170 170 121 98 87 70 64 80 69 90 99 100 109 120 136 142 147 156 155 152 152 148
207 215 203 214 220 248 254 289 90 105 134 151 124 145 165 164 173 173 174 176 183 182 184 186 189 189 192 176 167 143 135 108 93 90 88 82 71 108 113 127 130 131 148 147 152 153 161 158 162
Wind_Speed_850mb
17 15 7 20 13 16 31 20 25 17 27 29 17 14 19 20 23 8 18 9 6 3 7 18 17 15 21 26 25 25 28 30 33 30 36 36 37 33 31 30 32 32 30 28 25 23 25 21 31
13 8 16 23 21 29 4 21 15 21 22 20 5 10 6 25 25 14 25 9 3 2 7 10 17 21 29 30 29 28 32 35 37 36 40 40 40 39 36 34 31 31 32 30 27 29 25 25 27
23 18 27 17 28 30 14 12 18 22 4 5 11 8 4 13 15 8 10 3 6 8 21 21 20 31 38 36 32 31 35 38 40 43 45 43 40 42 43 43 42 39 38 33 29 30 33 29 29
9 20 26 20 33 22 19 15 15 19 22 14 10 10 17 15 18 14 3 5 9 9 11 18 19 31 39 36 36 39 43 44 47 48 48 47 46 47 48 49 48 46 42 38 30 33 30 34 34
19 24 24 36 42 19 28 33 16 17 17 18 19 4 19 22 21 17 12 8 10 10 14 20 30 36 36 36 36 42 46 48 49 52 53 54 52 52 53 50 50 49 46 43 37 37 38 40 34
29 34 25 30 39 17 15 16 15 20 24 8 8 5 17 27 19 14 10 9 10 12 18 15 23 29 35 32 33 35 41 49 53 53 53 54 55 57 60 62 61 54 49 46 42 39 41 40 32
33 24 35 41 41 44 23 19 11 21 20 16 20 8 11 25 18 13 13 17 10 9 13 15 18 31 31 31 35 36 40 44 47 48 52 56 57 57 59 60 55 47 42 49 44 36 43 39 38
41 24 43 38 38 39 6 14 22 28 12 12 3 6 11 19 18 11 12 14 12 18 6 16 22 16 23 27 31 39 44 44 39 42 45 45 47 42 34 35 38 39 43 47 43 37 39 44 38
41 27 32 42 45 29 36 24 22 27 8 33 13 13 10 16 18 13 16 16 15 14 16 11 17 28 36 24 24 35 38 37 39 33 44 42 33 27 21 24 31 32 35 41 41 36 38 41 39
40 29 47 43 42 32 40 31 38 38 27 30 28 21 24 24 20 21 22 22 26 11 12 19 27 33 40 20 22 27 31 34 42 47 36 35 30 29 26 28 33 29 36 38 43 39 36 38 40
51 40 44 51 51 46 45 39 41 29 22 20 13 4 32 24 25 27 24 22 13 8 8 19 31 29 36 23 23 24 24 35 50 31 30 33 27 21 16 23 32 29 29 42 44 42 36 35 34
49 64 60 60 49 49 38 51 40 25 28 27 2 5 23 31 31 29 27 19 11 14 11 12 18 27 24 29 24 21 24 38 33 26 32 33 26 21 26 29 30 36 29 38 45 42 35 26 30
52 52 63 50 39 58 59 46 38 32 26 17 11 20 23 21 26 30 25 18 18 7 13 13 24 20 23 26 23 28 35 33 24 21 29 28 38 30 26 27 27 37 36 36 38 35 33 23 35
57 61 57 44 62 60 48 38 34 50 22 9 21 22 29 26 25 26 25 23 16 16 9 16 15 18 19 28 32 34 35 29 28 21 25 37 31 25 22 25 24 37 40 38 39 41 35 38 38
60 50 45 49 51 45 50 38 33 45 28 37 29 30 30 30 29 34 34 27 22 16 12 13 16 17 19 26 31 37 35 33 30 27 31 30 24 25 23 21 19 27 47 45 45 43 39 38 39
45 52 43 46 45 58 51 37 28 40 29 44 34 35 39 35 35 28 26 28 24 17 14 15 9 15 17 23 27 30 33 32 31 30 30 31 28 26 21 18 16 14 39 50 43 47 37 31 42
41 36 50 47 44 47 31 33 33 38 39 35 36 35 35 34 31 28 28 28 23 18 14 11 12 9 20 18 26 28 31 31 27 31 28 27 26 23 19 14 11 10 32 44 45 46 43 34 47
40 45 44 45 45 36 30 31 32 42 49 29 52 44 39 34 41 37 35 27 24 19 16 10 8 12 19 14 22 23 25 21 27 22 20 21 24 19 20 16 16 16 34 43 41 36 39 41 48
49 49 48 44 29 20 30 40 30 29 33 46 45 36 32 34 40 42 39 31 26 19 15 10 11 12 17 20 23 19 14 13 21 29 18 16 22 23 18 18 21 23 32 38 42 44 44 44 41
55 52 47 42 37 27 30 31 26 29 37 53 48 33 31 37 45 43 39 36 29 20 13 14 6 11 12 16 14 11 12 15 21 22 28 12 5 15 20 19 23 28 30 32 41 44 47 48 44
50 50 40 46 34 32 32 29 27 43 44 43 35 15 7 40 44 45 40 37 30 23 19 11 9 7 9 11 17 23 22 20 17 18 19 16 3 9 19 25 19 22 26 33 36 46 46 45 53
49 50 51 39 30 24 29 28 26 31 32 21 16 26 30 43 45 49 44 40 33 24 19 14 10 2 9 9 11 25 24 24 17 10 22 17 5 8 16 30 24 23 22 29 38 42 34 32 33
47 48 43 33 30 32 30 24 29 29 35 15 2 15 42 50 50 53 47 41 33 26 22 15 10 4 4 18 18 17 27 27 14 6 15 13 7 5 17 29 29 31 26 25 36 36 36 30 34
49 45 33 24 24 26 31 30 28 31 5 9 3 13 36 42 45 47 42 39 33 27 21 16 13 8 2 6 15 21 32 26 16 11 12 11 11 4 14 31 32 35 25 31 31 31 40 46 39
44 34 21 23 24 24 34 34 32 25 14 2 5 12 35 39 44 46 45 41 36 29 24 17 14 8 4 2 8 14 23 28 26 23 21 18 23 14 18 18 30 33 28 27 33 30 32 34 43
46 33 26 30 23 33 30 26 7 4 13 8 3 12 28 35 44 45 45 40 36 30 24 18 15 11 5 1 4 12 12 21 27 32 28 30 26 18 20 19 21 25 30 34 32 35 35 39 39
42 43 37 35 32 26 15 26 20 23 17 17 19 21 31 31 43 45 44 40 35 31 26 20 15 12 8 2 2 8 11 19 21 24 28 29 26 28 25 24 24 33 33 38 44 45 50 50 42
44 38 33 25 33 30 26 28 13 25 17 22 23 20 29 35 42 45 44 40 33 31 28 22 17 13 10 4 3 5 9 13 17 20 24 28 30 27 27 28 31 35 39 43 49 47 57 43 41
37 39 35 28 29 25 22 21 30 21 19 22 21 32 35 44 45 46 43 38 33 32 28 26 19 14 12 8 6 8 6 11 12 17 21 29 25 28 31 30 30 36 41 47 50 54 52 41 36
46 46 35 20 35 23 21 7 19 17 18 13 38 38 40 47 46 43 42 39 36 33 32 27 23 17 14 10 9 11 8 10 11 16 21 28 27 20 34 37 34 37 35 41 43 44 42 38 22
Wind_Direction_850mb
173 153 110 245 257 232 261 360 230 330 59 50 19 359 347 332 42 51 139 143 80 109 252 275 294 308 318 317 300 293 286 288 287 292 292 289 284 285 287 291 291 292 287 276 256 246 261 262 248
168 211 256 271 248 279 329 277 319 12 41 30 338 267 350 75 64 86 133 125 128 259 237 264 279 287 303 311 303 290 283 286 285 286 286 289 290 293 291 290 281 285 285 276 258 240 248 250 248
181 228 274 242 253 265 317 295 343 350 78 138 280 181 60 93 84 68 115 14 228 247 266 258 268 290 299 302 296 280 278 282 281 280 281 285 281 279 278 281 281 280 278 280 259 246 238 248 247
197 222 249 255 261 298 330 348 334 360 311 165 212 43 114 128 129 137 187 210 245 280 266 273 285 288 291 292 280 271 270 272 276 279 282 281 278 276 276 275 275 274 272 269 254 239 239 243 243
249 265 260 263 269 343 265 312 350 315 306 326 119 241 108 129 127 142 150 196 232 254 277 284 284 286 286 291 281 275 275 276 280 282 281 280 279 277 274 272 271 271 267 261 261 231 233 237 239
230 236 263 273 293 190 270 338 342 310 304 313 221 117 108 154 135 145 166 215 221 237 259 268 276 293 301 308 304 294 283 280 280 279 280 281 281 279 276 273 272 267 261 255 250 234 230 236 237
250 269 270 283 300 298 319 209 289 297 325 0 22 18 140 159 157 166 187 196 205 225 262 286 281 301 316 311 308 300 298 299 291 284 283 284 282 280 277 272 269 266 251 248 240 238 228 233 233
242 263 275 276 273 288 359 315 268 318 271 338 349 335 47 135 180 181 190 217 242 254 229 277 298 288 282 302 297 299 304 311 306 294 289 287 288 289 285 281 268 259 243 242 235 228 228 233 234
244 257 262 272 284 309 309 322 324 298 233 279 247 196 145 162 183 201 225 234 251 240 278 298 277 269 282 289 294 296 303 304 304 313 300 293 295 291 267 278 274 260 246 236 227 224 223 228 229
243 248 259 274 287 310 316 311 307 303 244 237 209 183 199 177 192 226 227 232 245 232 258 291 278 275 294 306 292 280 291 279 286 297 294 300 291 280 263 242 254 252 246 229 212 211 220 226 223
240 252 258 273 290 300 299 297 285 293 299 293 23 309 172 187 212 226 243 259 226 292 292 272 288 296 303 299 284 302 289 276 289 305 314 310 306 317 289 258 253 254 244 220 208 211 217 226 215
256 253 256 257 278 297 277 280 280 288 288 275 346 291 185 205 217 223 235 254 263 231 279 281 287 287 303 293 287 270 273 276 287 289 302 306 301 283 278 265 254 239 233 222 208 215 219 220 180
252 261 262 270 275 265 269 265 279 278 282 294 296 242 233 244 217 225 221 236 229 257 252 291 281 304 295 306 296 283 288 292 282 288 287 289 295 282 280 277 255 225 217 228 210 202 192 209 189
256 260 267 270 258 264 268 264 256 269 254 236 264 253 249 234 223 213 215 217 228 246 272 275 295 289 301 309 327 315 308 288 288 271 270 270 293 279 280 284 269 227 201 219 210 194 194 204 201
263 266 270 255 255 260 269 262 248 269 239 263 253 241 244 261 238 226 209 212 221 239 256 274 325 306 309 316 314 313 312 300 284 273 261 263 273 287 288 293 279 232 209 208 206 195 185 201 211
257 261 259 259 253 252 239 251 265 261 225 256 244 252 251 236 235 210 203 212 216 221 240 268 279 286 298 302 310 309 314 306 290 279 269 259 262 268 277 288 283 246 205 202 199 186 184 204 187
249 250 254 258 250 255 225 238 242 268 281 247 241 258 260 233 198 197 201 209 210 221 230 250 272 312 297 329 333 313 322 327 308 290 283 270 264 256 262 276 268 210 185 186 187 183 181 182 175
237 240 237 251 261 253 229 244 239 242 251 260 262 249 252 230 187 192 196 207 211 215 233 252 291 289 304 359 328 324 328 339 349 322 300 273 265 247 248 248 225 194 175 176 168 183 185 180 168
243 248 249 252 239 267 233 240 240 265 283 287 290 285 258 203 182 183 192 199 208 213 229 243 262 300 313 341 322 315 333 8 354 3 335 277 259 228 227 227 208 188 179 181 186 189 180 176 172
241 250 260 272 283 291 288 271 280 290 270 266 265 272 276 166 159 173 187 195 206 218 217 229 262 282 325 308 330 336 321 314 343 347 5 4 312 207 218 198 181 184 183 180 180 180 175 172 180
232 244 254 262 276 276 282 270 265 263 265 263 255 232 241 158 163 175 182 195 203 206 213 204 235 267 353 343 352 327 326 317 317 349 349 13 210 201 192 165 157 170 181 188 172 178 177 181 172
232 232 239 250 270 270 283 292 287 297 277 259 258 212 184 164 173 177 183 192 198 204 203 196 211 213 337 335 350 349 355 345 315 321 3 23 93 193 180 166 171 172 154 177 174 173 175 183 168
234 236 241 237 245 257 263 270 277 283 284 239 131 238 179 159 174 175 181 188 192 196 193 184 206 193 327 356 5 5 356 346 350 325 14 42 71 159 189 174 176 169 181 174 180 165 159 177 177
233 236 244 253 261 254 249 254 268 268 26 83 336 110 138 158 168 171 178 182 186 189 188 187 198 195 191 347 4 356 3 18 37 51 43 31 50 102 161 179 171 178 180 183 190 175 163 165 169
217 226 224 225 236 253 253 249 250 265 306 115 10 100 144 156 162 166 173 175 182 183 186 184 202 195 181 331 9 23 14 49 62 51 43 54 52 93 135 155 182 185 184 180 182 175 168 159 160
209 204 228 224 226 246 269 240 258 225 150 122 154 78 129 155 160 169 175 178 180 181 186 187 191 200 163 82 36 37 12 49 66 52 50 50 61 84 125 121 147 167 176 173 165 155 152 154 158
199 212 215 250 262 274 232 230 266 159 174 201 177 140 137 156 161 169 173 179 179 182 186 185 194 193 188 182 89 61 16 40 43 44 46 51 69 93 98 112 129 147 147 154 153 148 143 144 146
221 196 208 227 242 264 280 277 264 145 196 151 126 143 147 157 163 170 174 178 180 183 184 185 191 193 193 164 105 88 72 48 39 47 59 59 83 83 105 96 127 137 144 145 145 146 154 143 126
202 228 199 224 224 230 248 268 124 151 163 133 153 145 158 161 169 171 174 176 181 182 184 186 187 187 191 170 170 121 98 87 70 64 80 69 90 99 100 109 120 136 142 147 156 155 152 152 148
207 215 203 214 220 248 254 289 90 105 134 151 124 145 165 164 173 173 174 176 183 182 184 186 189 189 192 176 167 143 135 108 93 90 88 82 71 108 113 127 130 131 148 147 152 153 161 158 162